TimePDT,TemperatureF,Dew PointF,Humidity,Sea Level PressureIn,VisibilityMPH,Wind Direction,Wind SpeedMPH,Gust SpeedMPH,PrecipitationIn,Events,Conditions,WindDirDegrees,DateUTC
12:53 AM,64.9,50.0,58,29.99,10.0,West,12.7,-,N/A,,Clear,270,2013-08-18 07:53:00
1:53 AM,63.0,48.9,60,30.00,10.0,West,8.1,-,N/A,,Clear,280,2013-08-18 08:53:00
2:53 AM,55.0,46.9,74,30.01,10.0,West,3.5,-,N/A,,Clear,280,2013-08-18 09:53:00
3:53 AM,55.9,48.0,75,30.02,10.0,West,8.1,-,N/A,,Clear,270,2013-08-18 10:53:00
4:53 AM,57.0,48.9,74,30.02,10.0,West,9.2,-,N/A,,Clear,280,2013-08-18 11:53:00
5:53 AM,55.9,48.9,77,30.03,10.0,West,6.9,-,N/A,,Clear,270,2013-08-18 12:53:00
6:53 AM,57.0,48.9,74,30.06,10.0,West,6.9,-,N/A,,Clear,280,2013-08-18 13:53:00
7:53 AM,64.0,48.9,58,30.07,10.0,Calm,Calm,-,N/A,,Clear,0,2013-08-18 14:53:00
8:53 AM,69.1,50.0,51,30.07,10.0,Calm,Calm,-,N/A,,Clear,0,2013-08-18 15:53:00
9:53 AM,73.9,50.0,43,30.06,10.0,Calm,Calm,-,N/A,,Clear,0,2013-08-18 16:53:00
10:53 AM,81.0,41.0,24,30.04,10.0,WSW,5.8,-,N/A,,Clear,240,2013-08-18 17:53:00
11:53 AM,82.9,46.9,28,30.04,10.0,SSW,6.9,-,N/A,,Clear,200,2013-08-18 18:53:00
12:53 PM,84.9,42.1,22,30.02,10.0,SE,6.9,-,N/A,,Clear,140,2013-08-18 19:53:00
1:53 PM,89.1,41.0,19,30.00,10.0,South,12.7,19.6,N/A,,Clear,180,2013-08-18 20:53:00
2:53 PM,91.0,37.9,15,29.99,10.0,SW,9.2,17.3,N/A,,Clear,220,2013-08-18 21:53:00
3:53 PM,91.0,37.0,15,29.97,10.0,West,6.9,-,N/A,,Clear,260,2013-08-18 22:53:00
4:53 PM,91.0,39.0,16,29.95,10.0,SW,10.4,-,N/A,,Clear,230,2013-08-18 23:53:00
5:53 PM,91.0,33.1,13,29.94,10.0,SW,12.7,-,N/A,,Clear,230,2013-08-19 00:53:00
6:53 PM,88.0,34.0,15,29.94,10.0,WNW,13.8,20.7,N/A,,Clear,300,2013-08-19 01:53:00
7:53 PM,81.0,33.1,18,29.95,10.0,WNW,10.4,-,N/A,,Clear,300,2013-08-19 02:53:00
8:53 PM,73.9,35.1,24,29.98,10.0,NNW,8.1,-,N/A,,Clear,330,2013-08-19 03:53:00
9:53 PM,68.0,39.0,35,30.01,10.0,WNW,9.2,-,N/A,,Clear,300,2013-08-19 04:53:00
10:53 PM,66.9,39.9,37,30.01,10.0,West,10.4,-,N/A,,Clear,260,2013-08-19 05:53:00
11:53 PM,66.0,39.9,38,30.02,10.0,West,6.9,-,N/A,,Clear,260,2013-08-19 06:53:00